TimeEDT,TemperatureF,Dew PointF,Humidity,Sea Level PressureIn,VisibilityMPH,Wind Direction,Wind SpeedMPH,Gust SpeedMPH,PrecipitationIn,Events,Conditions,WindDirDegrees,DateUTC
12:14 AM,47.5,45.7,93,30.01,10.0,Calm,Calm,-,N/A,,Clear,0,2013-09-30 04:14:00
12:35 AM,47.3,45.5,93,30.01,10.0,Calm,Calm,-,N/A,,Clear,0,2013-09-30 04:35:00
12:54 AM,47.3,45.7,94,30.01,10.0,Calm,Calm,-,N/A,,Clear,0,2013-09-30 04:54:00
1:14 AM,47.3,45.5,93,30.01,10.0,Calm,Calm,-,N/A,,Clear,0,2013-09-30 05:14:00
1:35 AM,47.3,45.5,93,30.01,10.0,Calm,Calm,-,N/A,,Clear,0,2013-09-30 05:35:00
1:54 AM,46.0,44.2,93,30.01,10.0,Calm,Calm,-,N/A,,Clear,0,2013-09-30 05:54:00
2:14 AM,46.2,44.4,93,30.02,10.0,Calm,Calm,-,N/A,,Clear,0,2013-09-30 06:14:00
2:35 AM,45.0,43.3,94,30.01,10.0,Calm,Calm,-,N/A,,Clear,0,2013-09-30 06:35:00
2:54 AM,43.7,41.9,93,30.01,10.0,NE,3.5,-,N/A,,Clear,50,2013-09-30 06:54:00
3:14 AM,44.1,42.4,94,30.00,10.0,Calm,Calm,-,N/A,,Clear,0,2013-09-30 07:14:00
3:35 AM,43.0,41.4,94,30.00,10.0,ENE,3.5,-,N/A,,Clear,60,2013-09-30 07:35:00
3:54 AM,42.8,41.4,95,29.99,10.0,NE,3.5,-,N/A,,Clear,40,2013-09-30 07:54:00
4:14 AM,42.8,41.5,95,29.99,10.0,NE,3.5,-,N/A,,Clear,40,2013-09-30 08:14:00
4:35 AM,43.2,41.9,95,29.99,4.0,NE,3.5,-,N/A,,Clear,50,2013-09-30 08:35:00
4:54 AM,43.0,41.9,96,29.99,10.0,NE,3.5,-,N/A,,Clear,40,2013-09-30 08:54:00
5:14 AM,42.3,41.0,95,30.00,10.0,Calm,Calm,-,N/A,,Clear,0,2013-09-30 09:14:00
5:35 AM,42.3,41.0,95,30.00,10.0,ENE,3.5,-,N/A,,Clear,70,2013-09-30 09:35:00
5:54 AM,42.6,41.2,95,30.00,10.0,NE,3.5,-,N/A,,Clear,50,2013-09-30 09:54:00
6:14 AM,42.3,40.8,95,30.00,10.0,ENE,3.5,-,N/A,,Clear,70,2013-09-30 10:14:00
6:35 AM,42.3,41.0,95,30.01,10.0,Calm,Calm,-,N/A,,Clear,0,2013-09-30 10:35:00
6:54 AM,42.3,41.0,95,30.00,10.0,Calm,Calm,-,N/A,,Clear,0,2013-09-30 10:54:00
7:14 AM,42.3,41.0,95,30.01,10.0,Calm,Calm,-,N/A,,Clear,0,2013-09-30 11:14:00
7:35 AM,42.3,41.0,95,30.01,10.0,NNE,3.5,-,N/A,,Clear,30,2013-09-30 11:35:00
7:54 AM,41.0,39.4,94,30.01,10.0,NE,3.5,-,N/A,,Clear,50,2013-09-30 11:54:00
8:15 AM,42.3,41.0,95,30.00,10.0,NE,4.6,-,N/A,,Clear,40,2013-09-30 12:15:00
8:35 AM,44.6,43.3,95,29.99,10.0,ENE,3.5,-,N/A,,Clear,70,2013-09-30 12:35:00
8:54 AM,47.3,45.9,95,29.99,10.0,ENE,4.6,-,N/A,,Clear,70,2013-09-30 12:54:00
9:15 AM,50.0,47.8,92,29.99,10.0,ENE,4.6,-,N/A,,Clear,70,2013-09-30 13:15:00
9:35 AM,52.0,49.8,92,29.98,10.0,NE,3.5,-,N/A,,Clear,50,2013-09-30 13:35:00
9:54 AM,54.9,50.0,84,29.98,10.0,East,4.6,-,N/A,,Clear,80,2013-09-30 13:54:00
10:15 AM,55.8,48.9,78,29.97,10.0,East,3.5,-,N/A,,Clear,90,2013-09-30 14:15:00
10:35 AM,57.4,50.0,76,29.96,10.0,East,3.5,-,N/A,,Clear,80,2013-09-30 14:35:00
10:54 AM,59.5,50.2,71,29.96,10.0,Calm,Calm,-,N/A,,Clear,0,2013-09-30 14:54:00
11:15 AM,61.5,49.6,65,29.96,10.0,Calm,Calm,-,N/A,,Clear,0,2013-09-30 15:15:00
11:35 AM,62.6,47.5,58,29.96,10.0,Calm,Calm,-,N/A,,Clear,0,2013-09-30 15:35:00
11:54 AM,62.6,46.4,55,29.96,10.0,Calm,Calm,-,N/A,,Clear,0,2013-09-30 15:54:00
12:15 PM,62.6,47.7,58,29.96,10.0,Calm,Calm,-,N/A,,Clear,0,2013-09-30 16:15:00
12:35 PM,67.3,48.9,52,29.96,10.0,SW,3.5,-,N/A,,Clear,220,2013-09-30 16:35:00
12:54 PM,67.6,48.6,50,29.96,10.0,SW,4.6,-,N/A,,Clear,230,2013-09-30 16:54:00
1:15 PM,67.5,48.4,50,29.94,10.0,Calm,Calm,-,N/A,,Clear,0,2013-09-30 17:15:00
1:35 PM,70.0,47.1,44,29.93,10.0,SSW,4.6,-,N/A,,Clear,200,2013-09-30 17:35:00
1:54 PM,70.0,47.5,45,29.93,10.0,SSW,5.8,-,N/A,,Clear,210,2013-09-30 17:54:00
2:15 PM,70.0,47.3,44,29.92,10.0,SW,3.5,-,N/A,,Clear,230,2013-09-30 18:15:00
2:35 PM,70.0,48.2,46,29.92,10.0,SW,4.6,-,N/A,,Clear,220,2013-09-30 18:35:00
2:54 PM,70.0,47.8,45,29.92,10.0,WSW,5.8,-,N/A,,Clear,240,2013-09-30 18:54:00
3:15 PM,70.0,48.9,47,29.91,10.0,WSW,5.8,-,N/A,,Clear,240,2013-09-30 19:15:00
3:34 PM,70.0,48.0,46,29.91,10.0,SW,5.8,-,N/A,,Clear,220,2013-09-30 19:34:00
3:54 PM,70.0,48.6,46,29.89,10.0,SW,5.8,-,N/A,,Clear,220,2013-09-30 19:54:00
4:15 PM,70.0,50.5,50,29.88,10.0,SSW,5.8,-,N/A,,Clear,200,2013-09-30 20:15:00
4:34 PM,70.0,50.2,49,29.88,10.0,SSW,5.8,-,N/A,,Clear,210,2013-09-30 20:34:00
4:54 PM,70.0,52.9,55,29.87,10.0,SSW,3.5,-,N/A,,Clear,210,2013-09-30 20:54:00
5:14 PM,70.0,54.0,57,29.88,10.0,SW,4.6,-,N/A,,Clear,230,2013-09-30 21:14:00
5:35 PM,70.0,55.0,59,29.87,10.0,WSW,5.8,-,N/A,,Clear,240,2013-09-30 21:35:00
5:55 PM,68.2,55.4,64,29.87,10.0,SW,4.6,-,N/A,,Clear,230,2013-09-30 21:55:00
6:14 PM,67.5,53.8,61,29.87,10.0,SW,6.9,-,N/A,,Clear,220,2013-09-30 22:14:00
6:35 PM,66.2,52.2,61,29.87,10.0,SW,3.5,-,N/A,,Clear,230,2013-09-30 22:35:00
6:55 PM,64.9,52.2,63,29.88,10.0,Calm,Calm,-,N/A,,Clear,0,2013-09-30 22:55:00
7:14 PM,62.6,51.8,68,29.88,10.0,Calm,Calm,-,N/A,,Clear,0,2013-09-30 23:14:00
7:35 PM,59.9,52.7,77,29.87,10.0,Calm,Calm,-,N/A,,Clear,0,2013-09-30 23:35:00
7:54 PM,59.9,53.1,78,29.87,10.0,Calm,Calm,-,N/A,,Clear,0,2013-09-30 23:54:00
8:14 PM,59.5,53.1,79,29.88,10.0,Calm,Calm,-,N/A,,Clear,0,2013-10-01 00:14:00
8:35 PM,58.5,52.5,81,29.88,10.0,Calm,Calm,-,N/A,,Clear,0,2013-10-01 00:35:00
8:54 PM,57.4,51.8,82,29.88,10.0,Calm,Calm,-,N/A,,Clear,0,2013-10-01 00:54:00
9:14 PM,57.4,51.8,82,29.88,10.0,NE,3.5,-,N/A,,Clear,50,2013-10-01 01:14:00
9:35 PM,56.7,52.5,86,29.88,10.0,Calm,Calm,-,N/A,,Clear,0,2013-10-01 01:35:00
9:54 PM,56.3,52.3,87,29.87,10.0,Calm,Calm,-,N/A,,Clear,0,2013-10-01 01:54:00
10:14 PM,58.5,51.1,76,29.87,10.0,Calm,Calm,-,N/A,,Clear,0,2013-10-01 02:14:00
10:35 PM,59.9,50.2,70,29.87,10.0,SW,3.5,-,N/A,,Clear,220,2013-10-01 02:35:00
10:54 PM,59.9,50.9,72,29.87,10.0,SW,4.6,-,N/A,,Clear,220,2013-10-01 02:54:00
11:14 PM,59.9,51.3,73,29.88,10.0,SSW,3.5,-,N/A,,Clear,200,2013-10-01 03:14:00
11:35 PM,59.9,51.3,73,29.86,10.0,Calm,Calm,-,N/A,,Clear,0,2013-10-01 03:35:00
11:54 PM,57.4,50.7,78,29.86,10.0,Calm,Calm,-,N/A,,Clear,0,2013-10-01 03:54:00